Location: Newport
(40.9001°N, 80.3545°W)
Time: 08:52:34
(UTC+00:00)

Daily predictions for brighter satellites

Satellite Brightness Start Highest point End
(mag) Time Altitude Azimuth Time Altitude Azimuth Time Altitude Azimuth
Cosmos 2278 Rocket 3.3 22:59:09 10° SSE 23:03:30 23° E 23:07:51 10° NE
ATLAS 5 CENTAUR R/B 3.1 23:03:49 10° WSW 23:07:44 36° NW 23:12:06 10° NNE
Cosmos 1844 3.8 23:02:20 10° SSW 23:08:02 85° ESE 23:13:50 10° NNE
Cosmos 1626 3.1 23:05:55 10° NNW 23:09:34 52° W 23:13:09 10° S
CZ-4 R/B 2.0 23:06:51 10° SE 23:10:40 37° ENE 23:14:33 10° N
Cosmos 1726 2.7 23:09:08 10° SSE 23:12:27 34° E 23:15:47 10° NNE
Cosmos 292 Rocket 4.1 23:08:38 10° S 23:13:04 41° ESE 23:17:32 10° NNE
Cosmos 1726 Rocket 3.5 23:10:24 10° S 23:14:46 72° E 23:19:09 10° NNE
Cosmos 1242 Rocket 3.2 23:13:06 10° N 23:16:31 34° ENE 23:19:53 10° SE
NOAA 12 4.1 23:12:26 10° SSE 23:17:43 88° ENE 23:23:02 10° NNW
Meteor 1-21 Rocket 4.4 23:11:59 10° N 23:17:53 88° W 23:23:39 10° S
Cosmos 2228 3.0 23:15:07 10° S 23:19:29 86° E 23:23:52 10° N
Cosmos 968 Rocket 3.7 23:15:48 10° NNW 23:21:05 79° WSW 23:26:19 10° SSE
Cosmos 1271 Rocket 2.7 23:17:25 10° N 23:21:25 85° E 23:25:25 10° S
Cosmos 1354 Rocket 4.1 23:17:43 10° NNW 23:22:59 86° WSW 23:28:12 10° SSE
CSL-04 Rocket 3.9 23:21:26 10° SE 23:26:46 50° ENE 23:32:04 10° N
Lacrosse 5 3.6 23:23:48 10° NNW 23:27:18 18° NNE 23:30:25 11° ENE
Cosmos 2285 Rocket 4.3 23:22:12 10° NNW 23:28:38 75° WSW 23:35:00 10° S
Cosmos 921 Rocket 3.2 23:24:57 10° SSW 23:29:27 83° WNW 23:33:57 10° NNE
Ariane Rocket 4.0 23:26:18 10° ESE 23:30:26 26° ENE 23:34:35 10° N
Cosmos 2058 Rocket 3.0 23:26:21 10° S 23:30:40 69° E 23:35:00 10° NNE
SL-4 R/B 2.3 23:30:15 10° WNW 23:34:03 59° SW 23:37:35 10° SE
Okean-O 3.8 23:30:52 10° S 23:35:07 48° W 23:39:26 10° NNW
Abrixas rocket 2.1 23:33:39 10° SW 23:36:40 58° SSE 23:38:28 21° ENE
Cosmos 1703 3.2 23:40:22 10° N 23:44:16 60° E 23:48:07 10° SSE
USA 238 DEB 4.1 23:38:51 10° S 23:44:54 38° ESE 23:51:07 10° NE
USA 238 4.1 23:38:58 10° S 23:45:01 38° ESE 23:51:13 10° NE
Unknown 4.4 23:43:42 10° NNW 23:46:14 22° NNE 23:46:56 20° NE
Cosmos 1833 Rocket 3.4 23:41:24 10° N 23:46:25 32° ENE 23:49:33 19° ESE
Cosmos 482 Debris 4.1 23:42:03 10° NW 23:46:59 68° NNE 23:48:37 26° ESE
USA 116 3.1 23:45:27 10° NNE 23:48:38 81° ESE 23:52:03 10° S
YAOGAN 6 2.7 23:45:42 10° S 23:49:23 78° W 23:53:02 10° NNW
COSMO-SKYMED 1 3.1 23:45:56 10° N 23:50:14 60° WNW 23:54:30 10° SSW
Unknown 2.8 23:48:35 10° NW 23:51:10 46° NE 23:51:36 41° ENE
OAO 3 Rocket 4.0 23:47:16 10° WSW 23:51:56 42° S 23:54:50 21° ESE
Cosmos 1777 Rocket 4.1 23:47:48 10° N 23:52:55 53° ENE 23:57:59 10° SE
